This is the latest recevied weather packets stored in our database for station/object VR2OT-10. If no packets are shown the sender has not sent any weather packets the latest 10 day(s).
| Time | Temp. | Humidity | Pressure | Rain* | Wind** | Luminosity | Snow |
|---|---|---|---|---|---|---|---|
| 1787599533 | 28.89° C | 81% | 1001 hPa | - | 2.24 m/s, 180° | - | - |
| 1787598633 | 28.89° C | 80% | 1001 hPa | - | 1.79 m/s, 180° | - | - |
| 1787597732 | 28.89° C | 80% | 1001 hPa | - | 1.79 m/s, 180° | - | - |
| 1787596834 | 28.89° C | 80% | 1001.1 hPa | - | 1.34 m/s, 225° | - | - |
| 1787595933 | 28.89° C | 80% | 1001.2 hPa | - | 1.34 m/s, 225° | - | - |
| 1787595031 | 28.89° C | 80% | 1001.2 hPa | - | 1.79 m/s, 225° | - | - |
| 1787594133 | 28.89° C | 78% | 1001.5 hPa | - | 1.34 m/s, 225° | - | - |
| 1787593234 | 28.89° C | 79% | 1001.5 hPa | - | 2.24 m/s, 225° | - | - |
| 1787592332 | 28.89° C | 79% | 1001.6 hPa | - | 3.13 m/s, 270° | - | - |
| 1787591434 | 29.44° C | 80% | 1001.6 hPa | - | 4.02 m/s, 270° | - | - |
| 1787590532 | 28.89° C | 78% | 1001.7 hPa | - | 4.02 m/s, 270° | - | - |
| 1787588733 | 28.89° C | 78% | 1002.2 hPa | - | 4.02 m/s, 270° | - | - |
| 1787587834 | 28.89° C | 78% | 1002.2 hPa | - | 3.13 m/s, 270° | - | - |
| 1787586034 | 28.89° C | 78% | 1002.5 hPa | - | 4.02 m/s, 270° | - | - |
| 1787585133 | 28.89° C | 79% | 1002.7 hPa | - | 3.58 m/s, 225° | - | - |
| 1787584232 | 28.89° C | 78% | 1002.7 hPa | - | 4.02 m/s, 225° | - | - |
| 1787583333 | 28.89° C | 80% | 1002.7 hPa | - | 2.24 m/s, 225° | - | - |
| 1787581532 | 28.33° C | 80% | 1002.6 hPa | - | 1.79 m/s, 225° | - | - |
| 1787580634 | 28.33° C | 81% | 1002.5 hPa | - | 1.34 m/s, 270° | - | - |
| 1787579733 | 28.89° C | 81% | 1002.2 hPa | - | 1.79 m/s, 270° | - | - |
| 1787578831 | 28.89° C | 83% | 1002.1 hPa | - | 0.89 m/s, 270° | - | - |
| 1787577933 | 28.33° C | 77% | 1001.7 hPa | - | 1.34 m/s, 180° | - | - |
| 1787576132 | 28.33° C | 81% | 1001 hPa | - | 3.13 m/s, 270° | - | - |
| 1787574333 | 30° C | 80% | 1000.7 hPa | - | 2.68 m/s, 270° | - | - |
| 1787573431 | 30° C | 79% | 1000.6 hPa | - | 3.13 m/s, 270° | - | - |
* Rain since midnight (hover to see other rain measurements)
** Current wind speed in m/s (hover to see current wind gust speed)